When you browse on this site, cookies collect data to enhance your experience and personalize the content and advertising you see.
Visit our Privacy Policy to learn more. By continuing to use the site, you agree to this use of cookies and data.
  • In Romania
  • List of Countries
  • For 7 days
  • Water Temperature
  • Weather Map
  • Weather Widgets
  • user-avatar
    Login

    Hourly Weather Wiktoria

    Today, 17 February, Monday

    Time Temperature Precipitation Wind Pressure Humidity
    00:00 +22°C° 0 mm 3 mps 747 mmHg 68%
    01:00 +21°C° 0 mm 4 mps 747 mmHg 69%
    02:00 +21°C° 0 mm 4 mps 746 mmHg 70%
    03:00 +21°C° 0 mm 4 mps 746 mmHg 72%
    04:00 +20°C° 0 mm 4 mps 746 mmHg 70%
    05:00 +20°C° 0 mm 4 mps 746 mmHg 70%
    06:00 +21°C° 0 mm 4 mps 747 mmHg 70%
    07:00 +21°C° 0 mm 4 mps 747 mmHg 71%
    08:00 +23°C° 0 mm 4 mps 747 mmHg 65%
    09:00 +26°C° 0 mm 4 mps 747 mmHg 60%
    10:00 +28°C° 0 mm 5 mps 746 mmHg 56%
    11:00 +29°C° 0 mm 4 mps 746 mmHg 50%
    12:00 +31°C° 0 mm 3 mps 745 mmHg 44%
    13:00 +33°C° 0 mm 3 mps 745 mmHg 38%
    14:00 +34°C° 0 mm 2 mps 745 mmHg 34%
    15:00 +35°C° 0 mm 2 mps 744 mmHg 30%
    16:00 +34°C° 0 mm 1 mps 744 mmHg 32%
    17:00 +32°C° 0 mm 1 mps 744 mmHg 35%
    18:00 +31°C° 0 mm 1 mps 744 mmHg 37%
    19:00 +30°C° 0 mm 2 mps 744 mmHg 40%
    20:00 +29°C° 0 mm 2 mps 744 mmHg 45%
    21:00 +27°C° 0 mm 2 mps 744 mmHg 50%
    22:00 +26°C° 0 mm 3 mps 744 mmHg 55%
    23:00 +25°C° 0 mm 2 mps 744 mmHg 59%

    Tomorrow, 18 February, Tuesday

    Time Temperature Precipitation Wind Pressure Humidity
    00:00 +24°C° 0 mm 2 mps 744 mmHg 63%
    01:00 +24°C° 0 mm 2 mps 744 mmHg 66%
    02:00 +23°C° 0 mm 2 mps 743 mmHg 67%
    03:00 +23°C° 0 mm 1 mps 743 mmHg 67%
    04:00 +23°C° 0 mm 1 mps 743 mmHg 68%
    05:00 +23°C° 0 mm 2 mps 743 mmHg 68%
    06:00 +23°C° 0 mm 2 mps 743 mmHg 67%
    07:00 +23°C° 0 mm 2 mps 743 mmHg 67%
    08:00 +25°C° 0 mm 2 mps 743 mmHg 61%
    09:00 +27°C° 0 mm 2 mps 742 mmHg 54%
    10:00 +29°C° 0 mm 3 mps 742 mmHg 48%
    11:00 +30°C° 0.1 mm 3 mps 742 mmHg 43%
    12:00 +32°C° 0.1 mm 4 mps 741 mmHg 37%
    13:00 +32°C° 0.1 mm 5 mps 741 mmHg 31%
    14:00 +32°C° 0 mm 6 mps 740 mmHg 33%
    15:00 +30°C° 0 mm 6 mps 740 mmHg 34%
    16:00 +29°C° 0 mm 7 mps 740 mmHg 35%
    17:00 +28°C° 0 mm 7 mps 740 mmHg 37%
    18:00 +26°C° 0 mm 7 mps 740 mmHg 39%
    19:00 +24°C° 0 mm 6 mps 741 mmHg 41%
    20:00 +22°C° 0 mm 6 mps 741 mmHg 48%
    21:00 +21°C° 0 mm 6 mps 741 mmHg 54%
    22:00 +19°C° 0 mm 6 mps 742 mmHg 60%
    23:00 +17°C° 0 mm 6 mps 742 mmHg 64%

    Day after tomorrow, 19 February, Wednesday

    Time Temperature Precipitation Wind Pressure Humidity
    00:00 +17°C° 0 mm 6 mps 742 mmHg 68%
    01:00 +16°C° 0 mm 7 mps 742 mmHg 72%
    02:00 +16°C° 0 mm 7 mps 743 mmHg 70%
    03:00 +16°C° 0 mm 7 mps 743 mmHg 68%
    04:00 +17°C° 0 mm 7 mps 743 mmHg 66%
    05:00 +16°C° 0 mm 7 mps 743 mmHg 66%
    06:00 +16°C° 0 mm 7 mps 744 mmHg 67%
    07:00 +15°C° 0 mm 7 mps 745 mmHg 67%
    08:00 +17°C° 0 mm 7 mps 745 mmHg 61%
    09:00 +18°C° 0 mm 8 mps 745 mmHg 55%
    10:00 +21°C° 0 mm 8 mps 745 mmHg 49%
    11:00 +21°C° 0 mm 8 mps 745 mmHg 46%
    12:00 +22°C° 0 mm 8 mps 745 mmHg 43%
    13:00 +23°C° 0 mm 8 mps 745 mmHg 40%
    14:00 +22°C° 0 mm 8 mps 745 mmHg 42%
    15:00 +22°C° 0 mm 9 mps 745 mmHg 44%
    16:00 +22°C° 0 mm 9 mps 745 mmHg 46%
    17:00 +20°C° 0 mm 8 mps 745 mmHg 47%
    18:00 +18°C° 0 mm 8 mps 746 mmHg 49%
    19:00 +17°C° 0 mm 7 mps 746 mmHg 50%
    20:00 +16°C° 0 mm 6 mps 747 mmHg 56%
    21:00 +15°C° 0 mm 6 mps 747 mmHg 62%
    22:00 +14°C° 0 mm 5 mps 748 mmHg 68%
    23:00 +14°C° 0 mm 5 mps 748 mmHg 71%

    20 February, Thursday

    Time Temperature Precipitation Wind Pressure Humidity
    00:00 +13°C° 0 mm 4 mps 747 mmHg 74%
    01:00 +13°C° 0 mm 4 mps 747 mmHg 77%
    02:00 +13°C° 0 mm 4 mps 747 mmHg 78%
    03:00 +12°C° 0 mm 4 mps 747 mmHg 79%
    04:00 +12°C° 0 mm 4 mps 747 mmHg 80%
    05:00 +12°C° 0 mm 4 mps 747 mmHg 77%
    06:00 +13°C° 0 mm 4 mps 748 mmHg 74%
    07:00 +13°C° 0 mm 5 mps 748 mmHg 71%
    08:00 +15°C° 0 mm 5 mps 748 mmHg 63%
    09:00 +17°C° 0 mm 5 mps 749 mmHg 56%
    10:00 +20°C° 0 mm 6 mps 749 mmHg 49%
    11:00 +21°C° 0 mm 6 mps 748 mmHg 45%
    12:00 +22°C° 0 mm 6 mps 748 mmHg 42%
    13:00 +24°C° 0 mm 7 mps 748 mmHg 38%
    14:00 +24°C° 0 mm 7 mps 747 mmHg 38%
    15:00 +24°C° 0 mm 7 mps 747 mmHg 38%
    16:00 +24°C° 0 mm 7 mps 746 mmHg 37%
    17:00 +22°C° 0 mm 7 mps 747 mmHg 41%
    18:00 +21°C° 0 mm 7 mps 747 mmHg 45%
    19:00 +19°C° 0 mm 6 mps 748 mmHg 49%
    20:00 +17°C° 0 mm 7 mps 748 mmHg 54%
    21:00 +16°C° 0 mm 7 mps 749 mmHg 58%
    22:00 +15°C° 0 mm 7 mps 749 mmHg 63%
    23:00 +15°C° 0 mm 7 mps 749 mmHg 65%

    21 February, Friday

    Time Temperature Precipitation Wind Pressure Humidity
    00:00 +14°C° 0 mm 6 mps 749 mmHg 68%
    01:00 +14°C° 0 mm 6 mps 749 mmHg 70%
    02:00 +13°C° 0 mm 5 mps 749 mmHg 71%
    03:00 +13°C° 0 mm 5 mps 749 mmHg 73%
    04:00 +12°C° 0 mm 5 mps 749 mmHg 74%
    05:00 +13°C° 0 mm 5 mps 749 mmHg 74%
    06:00 +13°C° 0 mm 5 mps 750 mmHg 74%
    07:00 +13°C° 0 mm 6 mps 750 mmHg 73%
    08:00 +15°C° 0 mm 6 mps 750 mmHg 65%
    09:00 +17°C° 0 mm 6 mps 751 mmHg 56%
    10:00 +21°C° 0 mm 6 mps 751 mmHg 47%
    11:00 +22°C° 0 mm 6 mps 750 mmHg 45%
    12:00 +23°C° 0 mm 7 mps 750 mmHg 43%
    13:00 +24°C° 0 mm 7 mps 750 mmHg 40%
    14:00 +24°C° 0 mm 7 mps 749 mmHg 39%
    15:00 +24°C° 0 mm 7 mps 749 mmHg 37%
    16:00 +24°C° 0 mm 7 mps 749 mmHg 35%
    23:00 +15°C° 0 mm 6 mps 752 mmHg 63%

    22 February, Saturday

    Time Temperature Precipitation Wind Pressure Humidity
    00:00 +13°C° 0 mm 5 mps 752 mmHg 64%
    01:00 +12°C° 0 mm 5 mps 752 mmHg 67%
    02:00 +12°C° 0 mm 4 mps 752 mmHg 70%
    03:00 +12°C° 0 mm 3 mps 752 mmHg 72%
    04:00 +11°C° 0 mm 3 mps 752 mmHg 75%
    05:00 +11°C° 0 mm 3 mps 753 mmHg 74%
    06:00 +12°C° 0 mm 3 mps 753 mmHg 73%
    07:00 +12°C° 0 mm 3 mps 753 mmHg 71%
    08:00 +16°C° 0 mm 3 mps 753 mmHg 65%
    09:00 +19°C° 0 mm 3 mps 753 mmHg 58%
    10:00 +22°C° 0 mm 3 mps 753 mmHg 52%
    11:00 +25°C° 0 mm 2 mps 753 mmHg 46%
    12:00 +26°C° 0 mm 2 mps 753 mmHg 41%
    13:00 +28°C° 0 mm 1 mps 752 mmHg 35%
    14:00 +29°C° 0 mm 1 mps 752 mmHg 33%
    15:00 +29°C° 0 mm 1 mps 751 mmHg 32%
    16:00 +30°C° 0 mm 1 mps 751 mmHg 30%
    17:00 +28°C° 0 mm 2 mps 751 mmHg 33%
    18:00 +27°C° 0 mm 3 mps 751 mmHg 36%
    19:00 +25°C° 0 mm 3 mps 751 mmHg 40%
    20:00 +22°C° 0 mm 4 mps 752 mmHg 46%
    21:00 +21°C° 0 mm 4 mps 752 mmHg 53%
    22:00 +19°C° 0 mm 4 mps 753 mmHg 59%
    23:00 +18°C° 0 mm 4 mps 753 mmHg 62%
    Show more